Location: Laguna de la Cañada del Gallo
(40.3974°N, 5.2096°W)
Time: 01:30:33
(UTC+00:00)

COSMOS 2455 - Visible Passes

Search period start: 21 July 2024 00:00
Search period end: 31 July 2024 00:00
Orbit: 898 x 911 km, 67.1° (Epoch: 20 July)

Date Brightness Start Highest point End Pass type
(mag) Time Alt. Az. Time Alt. Az. Time Alt. Az.
21 Jul 4.1 01:41:32 10° NW 01:45:09 26° W 01:45:09 26° W visible
21 Jul 5.2 22:15:00 10° N 22:17:40 13° NE 22:20:21 10° ENE visible
21 Jul 3.1 23:58:55 10° NNW 00:04:54 60° ENE 00:05:22 58° E visible
22 Jul 4.6 01:45:55 10° WNW 01:48:28 19° W 01:48:28 19° W visible
22 Jul 5.0 22:18:11 10° N 22:21:54 16° NE 22:25:36 10° ENE visible
23 Jul 2.8 00:02:43 10° NNW 00:08:44 80° NE 00:08:44 80° NE visible
23 Jul 4.9 01:50:40 10° WNW 01:51:50 13° W 01:51:50 13° W visible
23 Jul 4.7 22:21:36 10° N 22:26:04 21° NE 22:29:02 15° E visible
24 Jul 2.9 00:06:37 10° NNW 00:12:09 71° WNW 00:12:09 71° WNW visible
24 Jul 4.3 22:25:09 10° N 22:30:10 26° NE 22:32:30 21° E visible
25 Jul 3.3 00:10:33 10° NW 00:15:37 52° W 00:15:37 52° W visible
25 Jul 3.9 22:28:47 10° NNW 22:34:13 34° NE 22:36:00 29° E visible
26 Jul 3.7 00:14:36 10° NW 00:19:07 38° W 00:19:07 38° W visible
26 Jul 3.5 22:32:27 10° NNW 22:38:13 44° NE 22:39:33 39° E visible
27 Jul 4.2 00:18:46 10° NW 00:22:40 28° W 00:22:40 28° W visible
27 Jul 5.0 20:52:20 10° N 20:54:55 13° NE 20:57:29 10° ENE visible
27 Jul 3.0 22:36:12 10° NNW 22:42:10 59° ENE 22:43:08 52° E visible
28 Jul 4.6 00:23:08 10° WNW 00:26:15 20° W 00:26:15 20° W visible
28 Jul 4.9 20:55:31 10° N 20:59:08 16° NE 21:02:45 10° ENE visible
28 Jul 2.7 22:40:01 10° NNW 22:46:04 78° ENE 22:46:46 69° ESE visible
29 Jul 4.9 00:27:50 10° WNW 00:29:53 15° W 00:29:53 15° W visible
29 Jul 4.6 20:58:55 10° N 21:03:19 20° NE 21:07:18 11° E visible
29 Jul 2.7 22:43:52 10° NNW 22:49:55 79° WSW 22:50:26 73° SSW visible
30 Jul 4.2 21:02:27 10° N 21:07:26 26° NE 21:11:01 15° E visible
30 Jul 3.0 22:47:48 10° NW 22:53:43 58° WSW 22:54:08 57° SW visible
